Time,TemperatureF,DewpointF,PressureIn,WindDirection,WindDirectionDegrees,WindSpeedMPH,WindSpeedGustMPH,Humidity,HourlyPrecipIn,Conditions,Clouds,dailyrainin,SolarRadiationWatts/m^2,SoftwareType,DateUTC
2013-09-11 00:02:00,62.1,53.7,29.98,NW,314,2.0,2.0,74,0.00,,CLR,0.00,0.00,VWS V14.00,2013-09-11 05:02:00,
2013-09-11 00:07:00,62.1,53.7,29.98,NW,314,1.0,2.0,74,0.00,,CLR,0.00,0.00,VWS V14.00,2013-09-11 05:07:00,
2013-09-11 00:12:00,62.0,53.6,29.99,NW,314,1.0,2.0,74,0.00,,CLR,0.00,0.00,VWS V14.00,2013-09-11 05:12:00,
2013-09-11 00:17:00,61.8,53.4,29.99,NW,314,1.0,2.0,74,0.00,,CLR,0.00,0.00,VWS V14.00,2013-09-11 05:17:00,
2013-09-11 00:22:00,61.8,53.4,29.99,NW,314,1.0,2.0,74,0.00,,CLR,0.00,0.00,VWS V14.00,2013-09-11 05:22:00,
2013-09-11 00:27:00,61.7,53.3,29.99,NW,314,2.0,2.0,74,0.00,,CLR,0.00,0.00,VWS V14.00,2013-09-11 05:27:00,
2013-09-11 00:32:00,61.6,53.2,29.99,NW,314,1.0,2.0,74,0.00,,CLR,0.00,0.00,VWS V14.00,2013-09-11 05:32:00,
2013-09-11 00:37:00,61.3,53.3,29.99,NW,314,2.0,2.0,75,0.00,,CLR,0.00,0.00,VWS V14.00,2013-09-11 05:37:00,
2013-09-11 00:42:00,60.9,53.3,29.99,NW,314,2.0,3.0,76,0.00,,CLR,0.00,0.00,VWS V14.00,2013-09-11 05:42:00,
2013-09-11 00:47:00,60.6,53.4,29.99,NW,314,2.0,3.0,77,0.00,,CLR,0.00,0.00,VWS V14.00,2013-09-11 05:47:00,
2013-09-11 00:52:00,60.3,53.1,29.99,NW,314,3.0,3.0,77,0.00,,CLR,0.00,0.00,VWS V14.00,2013-09-11 05:52:00,
2013-09-11 00:57:00,60.1,53.2,29.99,NW,314,2.0,3.0,78,0.00,,CLR,0.00,0.00,VWS V14.00,2013-09-11 05:57:00,
2013-09-11 01:02:00,59.9,53.0,29.99,NW,314,2.0,3.0,78,0.00,,CLR,0.00,0.00,VWS V14.00,2013-09-11 06:02:00,
2013-09-11 01:07:00,59.8,52.9,30.00,NW,314,2.0,3.0,78,0.00,,CLR,0.00,0.00,VWS V14.00,2013-09-11 06:07:00,
2013-09-11 01:12:00,59.7,53.2,30.00,NW,314,3.0,3.0,79,0.00,,CLR,0.00,0.00,VWS V14.00,2013-09-11 06:12:00,
2013-09-11 01:17:00,59.6,53.1,30.00,NW,314,3.0,4.0,79,0.00,,CLR,0.00,0.00,VWS V14.00,2013-09-11 06:17:00,
2013-09-11 01:22:00,59.4,52.9,30.00,NW,314,2.0,4.0,79,0.00,,CLR,0.00,0.00,VWS V14.00,2013-09-11 06:22:00,
2013-09-11 01:28:00,59.3,53.1,30.00,NW,314,3.0,4.0,80,0.00,,CLR,0.00,0.00,VWS V14.00,2013-09-11 06:28:00,
2013-09-11 01:33:00,59.1,52.9,30.00,NW,314,3.0,4.0,80,0.00,,CLR,0.00,0.00,VWS V14.00,2013-09-11 06:33:00,
2013-09-11 01:38:00,58.9,53.1,30.00,NW,314,4.0,4.0,81,0.00,,CLR,0.00,0.00,VWS V14.00,2013-09-11 06:38:00,
2013-09-11 01:43:00,58.6,52.8,30.00,NW,314,4.0,5.0,81,0.00,,CLR,0.00,0.00,VWS V14.00,2013-09-11 06:43:00,
2013-09-11 01:48:00,58.3,52.8,30.00,NW,314,4.0,5.0,82,0.00,,CLR,0.00,0.00,VWS V14.00,2013-09-11 06:48:00,
2013-09-11 01:53:00,58.0,52.5,30.00,NW,314,4.0,5.0,82,0.00,,CLR,0.00,0.00,VWS V14.00,2013-09-11 06:53:00,
2013-09-11 01:58:00,57.8,52.7,30.00,NW,314,4.0,5.0,83,0.00,,CLR,0.00,0.00,VWS V14.00,2013-09-11 06:58:00,
2013-09-11 02:03:00,57.9,52.8,30.00,NW,314,3.0,4.0,83,0.00,,CLR,0.00,0.00,VWS V14.00,2013-09-11 07:03:00,
2013-09-11 02:08:00,58.0,52.9,30.00,NW,314,2.0,4.0,83,0.00,,CLR,0.00,0.00,VWS V14.00,2013-09-11 07:08:00,
2013-09-11 02:13:00,58.2,53.1,30.00,NW,314,2.0,4.0,83,0.00,,CLR,0.00,0.00,VWS V14.00,2013-09-11 07:13:00,
2013-09-11 02:18:00,58.3,52.8,30.00,NW,314,3.0,4.0,82,0.00,,CLR,0.00,0.00,VWS V14.00,2013-09-11 07:18:00,
2013-09-11 02:23:00,58.4,52.9,30.01,NW,314,3.0,4.0,82,0.00,,CLR,0.00,0.00,VWS V14.00,2013-09-11 07:23:00,
2013-09-11 02:28:00,58.4,52.9,30.01,NW,314,4.0,4.0,82,0.00,,CLR,0.00,0.00,VWS V14.00,2013-09-11 07:28:00,
2013-09-11 02:33:00,58.4,52.9,30.01,NW,314,3.0,4.0,82,0.00,,CLR,0.00,0.00,VWS V14.00,2013-09-11 07:33:00,
2013-09-11 02:38:00,58.5,53.0,30.01,NW,314,3.0,4.0,82,0.00,,CLR,0.00,0.00,VWS V14.00,2013-09-11 07:38:00,
2013-09-11 02:43:00,58.5,53.0,30.01,NW,314,3.0,4.0,82,0.00,,CLR,0.00,0.00,VWS V14.00,2013-09-11 07:43:00,
2013-09-11 02:48:00,58.5,53.0,30.01,NW,314,3.0,4.0,82,0.00,,CLR,0.00,0.00,VWS V14.00,2013-09-11 07:48:00,
2013-09-11 02:53:00,58.6,53.1,30.01,NW,314,2.0,4.0,82,0.00,,CLR,0.00,0.00,VWS V14.00,2013-09-11 07:53:00,
2013-09-11 02:58:00,58.6,53.1,30.01,NW,314,2.0,4.0,82,0.00,,CLR,0.00,0.00,VWS V14.00,2013-09-11 07:58:00,
2013-09-11 03:03:00,58.6,52.8,30.01,NW,314,3.0,3.0,81,0.00,,CLR,0.00,0.00,VWS V14.00,2013-09-11 08:03:00,
2013-09-11 03:08:00,58.5,52.7,30.01,NW,314,3.0,3.0,81,0.00,,CLR,0.00,0.00,VWS V14.00,2013-09-11 08:08:00,
2013-09-11 03:13:00,58.4,52.9,30.01,NW,314,3.0,4.0,82,0.00,,CLR,0.00,0.00,VWS V14.00,2013-09-11 08:13:00,
2013-09-11 03:18:00,58.2,52.7,30.01,NW,314,2.0,4.0,82,0.00,,CLR,0.00,0.00,VWS V14.00,2013-09-11 08:18:00,
2013-09-11 03:23:00,58.2,52.7,30.01,NW,314,3.0,4.0,82,0.00,,CLR,0.00,0.00,VWS V14.00,2013-09-11 08:23:00,
2013-09-11 03:28:00,58.4,52.6,30.01,NW,314,3.0,4.0,81,0.00,,CLR,0.00,0.00,VWS V14.00,2013-09-11 08:28:00,
2013-09-11 03:33:00,58.5,52.7,30.01,NW,314,3.0,4.0,81,0.00,,CLR,0.00,0.00,VWS V14.00,2013-09-11 08:33:00,
2013-09-11 03:39:00,58.5,52.4,30.01,NW,314,3.0,4.0,80,0.00,,CLR,0.00,0.00,VWS V14.00,2013-09-11 08:39:00,
2013-09-11 03:44:00,58.3,52.5,30.01,NW,314,3.0,4.0,81,0.00,,CLR,0.00,0.00,VWS V14.00,2013-09-11 08:44:00,
2013-09-11 03:49:00,58.2,52.4,30.02,NW,314,3.0,4.0,81,0.00,,CLR,0.00,0.00,VWS V14.00,2013-09-11 08:49:00,
2013-09-11 03:54:00,58.2,52.4,30.02,NW,314,3.0,4.0,81,0.00,,CLR,0.00,0.00,VWS V14.00,2013-09-11 08:54:00,
2013-09-11 03:59:00,58.3,52.2,30.02,NW,314,3.0,4.0,80,0.00,,CLR,0.00,0.00,VWS V14.00,2013-09-11 08:59:00,
2013-09-11 04:04:00,58.3,52.2,30.02,NW,314,3.0,4.0,80,0.00,,CLR,0.00,0.00,VWS V14.00,2013-09-11 09:04:00,
2013-09-11 04:09:00,58.3,52.2,30.02,NW,314,3.0,4.0,80,0.00,,CLR,0.00,0.00,VWS V14.00,2013-09-11 09:09:00,
2013-09-11 04:14:00,58.1,52.0,30.02,NW,314,4.0,4.0,80,0.00,,CLR,0.00,0.00,VWS V14.00,2013-09-11 09:14:00,
2013-09-11 04:19:00,57.9,51.8,30.02,NW,314,3.0,5.0,80,0.00,,CLR,0.00,0.00,VWS V14.00,2013-09-11 09:19:00,
2013-09-11 04:24:00,57.8,52.0,30.02,NW,314,3.0,5.0,81,0.00,,CLR,0.00,0.00,VWS V14.00,2013-09-11 09:24:00,
2013-09-11 04:29:00,58.0,51.9,30.02,NW,314,4.0,5.0,80,0.00,,CLR,0.00,0.00,VWS V14.00,2013-09-11 09:29:00,
2013-09-11 04:34:00,58.0,51.9,30.02,NW,314,3.0,4.0,80,0.00,,CLR,0.00,0.00,VWS V14.00,2013-09-11 09:34:00,
2013-09-11 04:39:00,58.0,51.9,30.02,NW,314,4.0,4.0,80,0.00,,CLR,0.00,0.00,VWS V14.00,2013-09-11 09:39:00,
2013-09-11 04:44:00,58.0,51.9,30.02,NW,314,4.0,4.0,80,0.00,,CLR,0.00,0.00,VWS V14.00,2013-09-11 09:44:00,
2013-09-11 04:49:00,57.9,51.8,30.02,NW,314,3.0,4.0,80,0.00,,CLR,0.00,0.00,VWS V14.00,2013-09-11 09:49:00,
2013-09-11 04:54:00,57.9,51.8,30.03,NW,314,4.0,4.0,80,0.00,,CLR,0.00,0.00,VWS V14.00,2013-09-11 09:54:00,
2013-09-11 04:59:00,57.6,51.5,30.03,NW,314,3.0,4.0,80,0.00,,CLR,0.00,0.00,VWS V14.00,2013-09-11 09:59:00,
2013-09-11 05:04:00,57.1,51.3,30.03,NW,314,3.0,4.0,81,0.00,,CLR,0.00,0.00,VWS V14.00,2013-09-11 10:04:00,
2013-09-11 05:09:00,56.4,51.3,30.03,NW,314,3.0,4.0,83,0.00,,CLR,0.00,0.00,VWS V14.00,2013-09-11 10:09:00,
2013-09-11 05:14:00,55.9,51.5,30.03,NW,314,3.0,4.0,85,0.00,,CLR,0.00,0.00,VWS V14.00,2013-09-11 10:14:00,
2013-09-11 05:19:00,55.7,51.6,30.03,NW,314,4.0,4.0,86,0.00,,CLR,0.00,0.00,VWS V14.00,2013-09-11 10:19:00,
2013-09-11 05:24:00,55.2,51.1,30.04,NW,314,4.0,5.0,86,0.00,,CLR,0.00,0.00,VWS V14.00,2013-09-11 10:24:00,
2013-09-11 05:29:00,54.9,51.1,30.04,NW,314,3.0,5.0,87,0.00,,CLR,0.00,0.00,VWS V14.00,2013-09-11 10:29:00,
2013-09-11 05:34:00,54.6,50.8,30.04,NW,314,3.0,4.0,87,0.00,,CLR,0.00,0.00,VWS V14.00,2013-09-11 10:34:00,
2013-09-11 05:39:00,54.4,50.6,30.04,NW,314,3.0,4.0,87,0.00,,CLR,0.00,0.00,VWS V14.00,2013-09-11 10:39:00,
2013-09-11 05:44:00,54.5,51.0,30.04,NW,314,3.0,4.0,88,0.00,,CLR,0.00,0.00,VWS V14.00,2013-09-11 10:44:00,
2013-09-11 05:49:00,54.6,51.1,30.04,NW,314,3.0,4.0,88,0.00,,CLR,0.00,0.00,VWS V14.00,2013-09-11 10:49:00,
2013-09-11 05:54:00,54.8,51.3,30.04,NW,314,3.0,4.0,88,0.00,,CLR,0.00,0.00,VWS V14.00,2013-09-11 10:54:00,
2013-09-11 05:59:00,55.0,51.5,30.04,NW,314,3.0,3.0,88,0.00,,CLR,0.00,0.00,VWS V14.00,2013-09-11 10:59:00,
2013-09-11 06:04:00,55.2,51.4,30.04,NW,314,3.0,4.0,87,0.00,,CLR,0.00,0.00,VWS V14.00,2013-09-11 11:04:00,
2013-09-11 06:09:00,55.4,51.6,30.04,NW,314,2.0,4.0,87,0.00,,CLR,0.00,0.00,VWS V14.00,2013-09-11 11:09:00,
2013-09-11 06:15:00,55.6,51.8,30.04,NW,314,3.0,4.0,87,0.00,,CLR,0.00,0.00,VWS V14.00,2013-09-11 11:15:00,
2013-09-11 06:20:00,55.8,51.7,30.04,NW,314,2.0,4.0,86,0.00,,CLR,0.00,0.00,VWS V14.00,2013-09-11 11:20:00,
2013-09-11 06:25:00,55.9,51.8,30.04,NW,314,3.0,4.0,86,0.00,,CLR,0.00,0.00,VWS V14.00,2013-09-11 11:25:00,
2013-09-11 06:30:00,56.1,52.0,30.04,NW,314,2.0,2.0,86,0.00,,CLR,0.00,0.00,VWS V14.00,2013-09-11 11:30:00,
2013-09-11 06:35:00,56.3,51.9,30.04,NW,314,2.0,3.0,85,0.00,,CLR,0.00,0.00,VWS V14.00,2013-09-11 11:35:00,
2013-09-11 06:40:00,56.6,51.8,30.04,NW,314,2.0,3.0,84,0.00,,CLR,0.00,0.00,VWS V14.00,2013-09-11 11:40:00,
2013-09-11 06:45:00,56.8,52.0,30.04,NW,314,2.0,3.0,84,0.00,,CLR,0.00,0.00,VWS V14.00,2013-09-11 11:45:00,
2013-09-11 06:50:00,56.9,51.8,30.04,NW,314,2.0,3.0,83,0.00,,CLR,0.00,0.00,VWS V14.00,2013-09-11 11:50:00,
2013-09-11 06:55:00,57.1,51.7,30.04,NW,314,2.0,3.0,82,0.00,,CLR,0.00,0.00,VWS V14.00,2013-09-11 11:55:00,
2013-09-11 07:00:00,57.1,51.7,30.04,NW,314,2.0,3.0,82,0.00,,CLR,0.00,0.00,VWS V14.00,2013-09-11 12:00:00,
2013-09-11 07:05:00,57.1,51.7,30.04,NW,314,3.0,3.0,82,0.00,,CLR,0.00,0.00,VWS V14.00,2013-09-11 12:05:00,
2013-09-11 07:10:00,57.0,51.6,30.04,NW,314,2.0,3.0,82,0.00,,CLR,0.00,0.00,VWS V14.00,2013-09-11 12:10:00,
2013-09-11 07:15:00,57.1,51.7,30.05,NW,314,3.0,3.0,82,0.00,,CLR,0.00,0.00,VWS V14.00,2013-09-11 12:15:00,
2013-09-11 07:20:00,57.3,51.5,30.05,NW,314,3.0,3.0,81,0.00,,CLR,0.00,5.00,VWS V14.00,2013-09-11 12:20:00,
2013-09-11 07:25:00,57.2,51.4,30.05,NW,314,2.0,3.0,81,0.00,,CLR,0.00,9.00,VWS V14.00,2013-09-11 12:25:00,
2013-09-11 07:30:00,56.9,51.1,30.05,NW,314,2.0,3.0,81,0.00,,CLR,0.00,12.00,VWS V14.00,2013-09-11 12:30:00,
2013-09-11 07:35:00,56.4,51.0,30.05,NW,314,3.0,3.0,82,0.00,,CLR,0.00,14.00,VWS V14.00,2013-09-11 12:35:00,
2013-09-11 07:40:00,56.1,51.0,30.05,NW,314,3.0,4.0,83,0.00,,CLR,0.00,16.00,VWS V14.00,2013-09-11 12:40:00,
2013-09-11 07:45:00,55.8,51.0,30.06,NW,314,3.0,4.0,84,0.00,,CLR,0.00,18.00,VWS V14.00,2013-09-11 12:45:00,
2013-09-11 07:50:00,55.4,51.0,30.06,NW,314,3.0,4.0,85,0.00,,CLR,0.00,21.00,VWS V14.00,2013-09-11 12:50:00,
2013-09-11 07:55:00,55.1,51.0,30.06,NW,314,3.0,4.0,86,0.00,,CLR,0.00,23.00,VWS V14.00,2013-09-11 12:55:00,
2013-09-11 08:00:00,55.1,51.0,30.06,NW,314,3.0,3.0,86,0.00,,CLR,0.00,25.00,VWS V14.00,2013-09-11 13:00:00,
2013-09-11 08:05:00,55.3,51.2,30.06,NW,314,3.0,4.0,86,0.00,,CLR,0.00,26.00,VWS V14.00,2013-09-11 13:05:00,
2013-09-11 08:12:00,55.6,51.5,30.06,NW,314,3.0,4.0,86,0.00,,CLR,0.00,28.00,VWS V14.00,2013-09-11 13:12:00,
2013-09-11 08:17:00,56.0,51.9,30.06,NW,314,4.0,4.0,86,0.00,,CLR,0.00,32.00,VWS V14.00,2013-09-11 13:17:00,
2013-09-11 08:22:00,56.5,52.0,30.06,NW,314,3.0,5.0,85,0.00,,CLR,0.00,86.00,VWS V14.00,2013-09-11 13:22:00,
2013-09-11 08:27:00,57.0,52.5,30.07,NW,314,3.0,5.0,85,0.00,,CLR,0.00,123.00,VWS V14.00,2013-09-11 13:27:00,
2013-09-11 08:32:00,57.6,52.8,30.07,NW,314,2.0,4.0,84,0.00,,CLR,0.00,137.00,VWS V14.00,2013-09-11 13:32:00,
2013-09-11 08:37:00,58.2,53.4,30.07,NW,314,3.0,4.0,84,0.00,,CLR,0.00,149.00,VWS V14.00,2013-09-11 13:37:00,
2013-09-11 08:42:00,58.5,53.4,30.07,NW,314,3.0,4.0,83,0.00,,CLR,0.00,139.00,VWS V14.00,2013-09-11 13:42:00,
2013-09-11 08:47:00,58.8,53.3,30.07,NW,314,3.0,4.0,82,0.00,,CLR,0.00,118.00,VWS V14.00,2013-09-11 13:47:00,
2013-09-11 08:52:00,59.1,53.6,30.07,NW,314,3.0,4.0,82,0.00,,CLR,0.00,135.00,VWS V14.00,2013-09-11 13:52:00,
2013-09-11 08:57:00,59.5,54.0,30.07,NW,314,3.0,4.0,82,0.00,,CLR,0.00,200.00,VWS V14.00,2013-09-11 13:57:00,
2013-09-11 09:02:00,59.9,54.1,30.07,NW,314,3.0,5.0,81,0.00,,CLR,0.00,243.00,VWS V14.00,2013-09-11 14:02:00,
2013-09-11 09:07:00,60.5,54.3,30.07,NW,314,4.0,5.0,80,0.00,,CLR,0.00,257.00,VWS V14.00,2013-09-11 14:07:00,
2013-09-11 09:12:00,61.0,54.5,30.07,NW,314,3.0,5.0,79,0.00,,CLR,0.00,271.00,VWS V14.00,2013-09-11 14:12:00,
2013-09-11 09:17:00,61.3,55.1,30.07,NW,314,4.0,5.0,80,0.00,,CLR,0.00,285.00,VWS V14.00,2013-09-11 14:17:00,
2013-09-11 09:22:00,61.5,55.3,30.07,NW,314,2.0,5.0,80,0.00,,CLR,0.00,302.00,VWS V14.00,2013-09-11 14:22:00,
2013-09-11 09:27:00,62.1,55.9,30.07,NW,314,3.0,5.0,80,0.00,,CLR,0.00,315.00,VWS V14.00,2013-09-11 14:27:00,
2013-09-11 09:32:00,62.7,56.1,30.08,WNW,298,4.0,4.0,79,0.00,,CLR,0.00,329.00,VWS V14.00,2013-09-11 14:32:00,
2013-09-11 09:37:00,63.2,56.9,30.08,WNW,299,4.0,5.0,80,0.00,,CLR,0.00,339.00,VWS V14.00,2013-09-11 14:37:00,
2013-09-11 09:42:00,63.9,56.6,30.08,WNW,300,4.0,5.0,77,0.00,,CLR,0.00,297.00,VWS V14.00,2013-09-11 14:42:00,
2013-09-11 09:47:00,64.2,56.1,30.08,WNW,300,3.0,6.0,75,0.00,,CLR,0.00,232.00,VWS V14.00,2013-09-11 14:47:00,
2013-09-11 09:52:00,64.7,57.7,30.08,WNW,300,2.0,6.0,78,0.00,,CLR,0.00,209.00,VWS V14.00,2013-09-11 14:52:00,
2013-09-11 09:57:00,65.2,57.5,30.08,WNW,298,5.0,6.0,76,0.00,,CLR,0.00,339.00,VWS V14.00,2013-09-11 14:57:00,
2013-09-11 10:02:00,65.6,57.8,30.09,WNW,296,4.0,7.0,76,0.00,,CLR,0.00,415.00,VWS V14.00,2013-09-11 15:02:00,
2013-09-11 10:07:00,66.3,56.2,30.09,NW,313,5.0,9.0,70,0.00,,CLR,0.00,432.00,VWS V14.00,2013-09-11 15:07:00,
2013-09-11 10:12:00,67.1,56.2,30.09,NW,314,7.0,9.0,68,0.00,,CLR,0.00,443.00,VWS V14.00,2013-09-11 15:12:00,
2013-09-11 10:17:00,67.5,56.2,30.09,NW,317,7.0,9.0,67,0.00,,CLR,0.00,454.00,VWS V14.00,2013-09-11 15:17:00,
2013-09-11 10:22:00,68.0,55.0,30.09,NW,304,7.0,11.0,63,0.00,,CLR,0.00,471.00,VWS V14.00,2013-09-11 15:22:00,
2013-09-11 10:27:00,68.3,54.8,30.09,NW,306,8.0,11.0,62,0.00,,CLR,0.00,480.00,VWS V14.00,2013-09-11 15:27:00,
2013-09-11 10:32:00,68.6,55.1,30.09,NW,311,3.0,7.0,62,0.00,,CLR,0.00,499.00,VWS V14.00,2013-09-11 15:32:00,
2013-09-11 10:37:00,69.2,54.3,30.09,NW,311,7.0,9.0,59,0.00,,CLR,0.00,510.00,VWS V14.00,2013-09-11 15:37:00,
2013-09-11 10:42:00,70.0,54.1,30.09,NW,309,4.0,9.0,57,0.00,,CLR,0.00,517.00,VWS V14.00,2013-09-11 15:42:00,
2013-09-11 10:47:00,70.6,54.6,30.09,NNW,329,8.0,10.0,57,0.00,,CLR,0.00,527.00,VWS V14.00,2013-09-11 15:47:00,
2013-09-11 10:52:00,71.3,54.3,30.10,NNW,331,7.0,12.0,55,0.00,,CLR,0.00,540.00,VWS V14.00,2013-09-11 15:52:00,
2013-09-11 10:57:00,71.9,53.3,30.10,NNW,335,7.0,12.0,52,0.00,,CLR,0.00,552.00,VWS V14.00,2013-09-11 15:57:00,
2013-09-11 11:02:00,72.3,52.6,30.10,NNW,327,8.0,12.0,50,0.00,,CLR,0.00,570.00,VWS V14.00,2013-09-11 16:02:00,
2013-09-11 11:07:00,72.5,51.7,30.10,NNW,331,9.0,12.0,48,0.00,,CLR,0.00,563.00,VWS V14.00,2013-09-11 16:07:00,
2013-09-11 11:13:00,72.4,51.0,30.10,NW,318,10.0,12.0,47,0.00,,CLR,0.00,561.00,VWS V14.00,2013-09-11 16:13:00,
2013-09-11 11:18:00,72.4,51.6,30.10,NW,320,9.0,12.0,48,0.00,,CLR,0.00,526.00,VWS V14.00,2013-09-11 16:18:00,
2013-09-11 11:23:00,72.6,51.2,30.10,NW,319,7.0,12.0,47,0.00,,CLR,0.00,540.00,VWS V14.00,2013-09-11 16:23:00,
2013-09-11 11:28:00,73.0,52.7,30.10,NNW,333,7.0,12.0,49,0.00,,CLR,0.00,510.00,VWS V14.00,2013-09-11 16:28:00,
2013-09-11 11:33:00,73.2,52.4,30.10,NNW,338,10.0,11.0,48,0.00,,CLR,0.00,598.00,VWS V14.00,2013-09-11 16:33:00,
2013-09-11 11:38:00,73.2,54.5,30.11,NNW,329,8.0,11.0,52,0.00,,CLR,0.00,355.00,VWS V14.00,2013-09-11 16:38:00,
2013-09-11 11:43:00,73.0,52.7,30.11,NW,318,9.0,12.0,49,0.00,,BKN100,0.00,410.00,VWS V14.00,2013-09-11 16:43:00,
2013-09-11 11:48:00,72.8,54.2,30.11,North,355,8.0,12.0,52,0.00,,BKN100,0.00,392.00,VWS V14.00,2013-09-11 16:48:00,
2013-09-11 11:53:00,72.9,53.7,30.11,NNW,333,12.0,12.0,51,0.00,,BKN100,0.00,418.00,VWS V14.00,2013-09-11 16:53:00,
2013-09-11 11:58:00,73.0,53.8,30.11,NNW,347,13.0,15.0,51,0.00,,BKN100,0.00,374.00,VWS V14.00,2013-09-11 16:58:00,
2013-09-11 12:03:00,72.6,54.0,30.11,North,355,10.0,13.0,52,0.00,,BKN100,0.00,355.00,VWS V14.00,2013-09-11 17:03:00,
2013-09-11 12:08:00,72.5,54.4,30.11,NNW,329,12.0,14.0,53,0.00,,BKN100,0.00,432.00,VWS V14.00,2013-09-11 17:08:00,
2013-09-11 12:13:00,72.9,53.7,30.11,NNW,339,11.0,14.0,51,0.00,,BKN100,0.00,461.00,VWS V14.00,2013-09-11 17:13:00,
2013-09-11 12:18:00,73.1,52.8,30.11,NNW,341,12.0,14.0,49,0.00,,BKN100,0.00,452.00,VWS V14.00,2013-09-11 17:18:00,
2013-09-11 12:23:00,73.5,53.2,30.11,North,350,7.0,14.0,49,0.00,,BKN100,0.00,738.00,VWS V14.00,2013-09-11 17:23:00,
2013-09-11 12:28:00,73.7,52.2,30.11,NNW,333,7.0,14.0,47,0.00,,BKN100,0.00,689.00,VWS V14.00,2013-09-11 17:28:00,
2013-09-11 12:33:00,73.9,54.1,30.11,NNW,329,6.0,12.0,50,0.00,,BKN100,0.00,817.00,VWS V14.00,2013-09-11 17:33:00,
2013-09-11 12:38:00,73.9,51.8,30.11,NW,308,6.0,13.0,46,0.00,,BKN100,0.00,439.00,VWS V14.00,2013-09-11 17:38:00,
2013-09-11 12:43:00,74.0,52.5,30.11,NNW,338,8.0,13.0,47,0.00,,OVC110,0.00,432.00,VWS V14.00,2013-09-11 17:43:00,
2013-09-11 12:48:00,74.7,51.4,30.11,North,351,8.0,13.0,44,0.00,,OVC110,0.00,721.00,VWS V14.00,2013-09-11 17:48:00,
2013-09-11 12:53:00,74.6,53.1,30.11,NNW,331,7.0,13.0,47,0.00,,OVC110,0.00,496.00,VWS V14.00,2013-09-11 17:53:00,
2013-09-11 12:58:00,74.7,54.3,30.11,North,360,6.0,13.0,49,0.00,,OVC110,0.00,650.00,VWS V14.00,2013-09-11 17:58:00,
2013-09-11 13:03:00,75.4,52.0,30.12,NNW,348,5.0,12.0,44,0.00,,OVC110,0.00,490.00,VWS V14.00,2013-09-11 18:03:00,
2013-09-11 13:09:00,74.9,52.8,30.12,NNE,13,10.0,12.0,46,0.00,,OVC110,0.00,450.00,VWS V14.00,2013-09-11 18:09:00,
2013-09-11 13:14:00,74.7,52.6,30.12,North,355,6.0,13.0,46,0.00,,OVC110,0.00,394.00,VWS V14.00,2013-09-11 18:14:00,
2013-09-11 13:19:00,74.3,53.4,30.11,NNE,13,15.0,15.0,48,0.00,,OVC110,0.00,390.00,VWS V14.00,2013-09-11 18:19:00,
2013-09-11 13:24:00,74.3,55.0,30.12,North,355,8.0,15.0,51,0.00,,OVC110,0.00,380.00,VWS V14.00,2013-09-11 18:24:00,
2013-09-11 13:29:00,74.4,54.0,30.11,NNE,15,8.0,15.0,49,0.00,,OVC110,0.00,329.00,VWS V14.00,2013-09-11 18:29:00,
2013-09-11 13:34:00,74.4,54.0,30.11,North,5,6.0,10.0,49,0.00,,OVC110,0.00,396.00,VWS V14.00,2013-09-11 18:34:00,
2013-09-11 13:39:00,74.3,52.2,30.11,North,10,10.0,10.0,46,0.00,,OVC110,0.00,378.00,VWS V14.00,2013-09-11 18:39:00,
2013-09-11 13:44:00,74.8,52.1,30.11,NNW,347,7.0,10.0,45,0.00,,BKN100,0.00,935.00,VWS V14.00,2013-09-11 18:44:00,
2013-09-11 13:49:00,75.3,51.3,30.11,North,355,9.0,12.0,43,0.00,,BKN100,0.00,810.00,VWS V14.00,2013-09-11 18:49:00,
2013-09-11 13:54:00,75.7,49.7,30.12,NNW,345,5.0,12.0,40,0.00,,BKN100,0.00,772.00,VWS V14.00,2013-09-11 18:54:00,
2013-09-11 13:59:00,76.1,50.0,30.12,North,355,9.0,14.0,40,0.00,,BKN100,0.00,772.00,VWS V14.00,2013-09-11 18:59:00,
2013-09-11 14:04:00,76.2,49.5,30.12,North,351,10.0,15.0,39,0.00,,BKN100,0.00,772.00,VWS V14.00,2013-09-11 19:04:00,
2013-09-11 14:09:00,76.4,48.2,30.12,NNW,348,9.0,17.0,37,0.00,,BKN100,0.00,759.00,VWS V14.00,2013-09-11 19:09:00,
2013-09-11 14:14:00,76.0,47.2,30.12,NW,326,4.0,17.0,36,0.00,,BKN100,0.00,763.00,VWS V14.00,2013-09-11 19:14:00,
2013-09-11 14:19:00,76.2,50.8,30.12,North,9,12.0,17.0,41,0.00,,BKN100,0.00,795.00,VWS V14.00,2013-09-11 19:19:00,
2013-09-11 14:24:00,76.7,51.9,30.12,North,351,11.0,17.0,42,0.00,,BKN100,0.00,612.00,VWS V14.00,2013-09-11 19:24:00,
2013-09-11 14:29:00,76.9,48.7,30.12,NNW,338,9.0,17.0,37,0.00,,BKN100,0.00,944.00,VWS V14.00,2013-09-11 19:29:00,
2013-09-11 14:34:00,76.0,51.9,30.12,NNW,346,6.0,12.0,43,0.00,,BKN100,0.00,814.00,VWS V14.00,2013-09-11 19:34:00,
2013-09-11 14:39:00,76.1,48.7,30.12,NNW,329,6.0,12.0,38,0.00,,BKN100,0.00,763.00,VWS V14.00,2013-09-11 19:39:00,
2013-09-11 14:44:00,76.5,47.6,30.12,NNW,340,9.0,13.0,36,0.00,,OVC110,0.00,740.00,VWS V14.00,2013-09-11 19:44:00,
2013-09-11 14:49:00,76.3,48.8,30.12,NNW,333,7.0,13.0,38,0.00,,OVC110,0.00,731.00,VWS V14.00,2013-09-11 19:49:00,
2013-09-11 14:54:00,76.4,46.0,30.12,NW,316,13.0,15.0,34,0.00,,OVC110,0.00,729.00,VWS V14.00,2013-09-11 19:54:00,
2013-09-11 14:59:00,76.3,46.7,30.12,NW,315,10.0,15.0,35,0.00,,OVC110,0.00,450.00,VWS V14.00,2013-09-11 19:59:00,
2013-09-11 15:04:00,75.9,47.1,30.12,NNW,327,8.0,14.0,36,0.00,,OVC110,0.00,499.00,VWS V14.00,2013-09-11 20:04:00,
2013-09-11 15:09:00,76.1,45.7,30.11,NW,326,8.0,16.0,34,0.00,,OVC110,0.00,708.00,VWS V14.00,2013-09-11 20:09:00,
2013-09-11 15:14:00,76.7,46.2,30.12,NNW,337,10.0,16.0,34,0.00,,OVC110,0.00,712.00,VWS V14.00,2013-09-11 20:14:00,
2013-09-11 15:19:00,76.6,46.2,30.12,NW,315,13.0,19.0,34,0.00,,OVC110,0.00,680.00,VWS V14.00,2013-09-11 20:19:00,
2013-09-11 15:24:00,76.3,45.9,30.12,NNW,334,8.0,19.0,34,0.00,,OVC110,0.00,640.00,VWS V14.00,2013-09-11 20:24:00,
2013-09-11 15:30:00,76.3,48.1,30.12,NNW,346,6.0,8.0,37,0.00,,OVC110,0.00,657.00,VWS V14.00,2013-09-11 20:30:00,
2013-09-11 15:35:00,74.7,45.3,30.12,North,355,7.0,14.0,35,0.00,,OVC110,0.00,185.00,VWS V14.00,2013-09-11 20:35:00,
2013-09-11 15:40:00,74.5,45.8,30.12,North,355,13.0,19.0,36,0.00,,OVC110,0.00,691.00,VWS V14.00,2013-09-11 20:40:00,
2013-09-11 15:45:00,76.0,47.2,30.12,North,349,9.0,19.0,36,0.00,,BKN100,0.00,694.00,VWS V14.00,2013-09-11 20:45:00,
2013-09-11 15:50:00,76.5,45.3,30.12,NNW,330,15.0,19.0,33,0.00,,BKN100,0.00,643.00,VWS V14.00,2013-09-11 20:50:00,
2013-09-11 15:55:00,76.4,47.5,30.12,North,9,7.0,19.0,36,0.00,,BKN100,0.00,633.00,VWS V14.00,2013-09-11 20:55:00,
2013-09-11 16:00:00,76.6,46.9,30.12,NNW,344,8.0,9.0,35,0.00,,BKN100,0.00,622.00,VWS V14.00,2013-09-11 21:00:00,
2013-09-11 16:05:00,76.5,46.1,30.12,NNW,329,9.0,14.0,34,0.00,,BKN100,0.00,613.00,VWS V14.00,2013-09-11 21:05:00,
2013-09-11 16:10:00,76.6,46.9,30.12,NNW,330,6.0,14.0,35,0.00,,BKN100,0.00,603.00,VWS V14.00,2013-09-11 21:10:00,
2013-09-11 16:15:00,76.9,47.9,30.12,NNW,346,14.0,17.0,36,0.00,,BKN100,0.00,592.00,VWS V14.00,2013-09-11 21:15:00,
2013-09-11 16:20:00,76.7,46.2,30.12,NNW,339,8.0,17.0,34,0.00,,BKN100,0.00,577.00,VWS V14.00,2013-09-11 21:20:00,
2013-09-11 16:25:00,76.9,48.7,30.12,North,355,12.0,17.0,37,0.00,,BKN100,0.00,568.00,VWS V14.00,2013-09-11 21:25:00,
2013-09-11 16:30:00,76.9,47.2,30.12,NNW,332,12.0,15.0,35,0.00,,BKN100,0.00,559.00,VWS V14.00,2013-09-11 21:30:00,
2013-09-11 16:35:00,76.6,49.8,30.12,North,355,7.0,15.0,39,0.00,,BKN100,0.00,547.00,VWS V14.00,2013-09-11 21:35:00,
2013-09-11 16:40:00,76.7,47.8,30.12,NNW,346,7.0,15.0,36,0.00,,BKN100,0.00,531.00,VWS V14.00,2013-09-11 21:40:00,
2013-09-11 16:45:00,76.8,47.1,30.12,North,360,10.0,15.0,35,0.00,,SCT100,0.00,529.00,VWS V14.00,2013-09-11 21:45:00,
2013-09-11 16:50:00,76.6,48.4,30.12,NNW,342,13.0,17.0,37,0.00,,SCT100,0.00,520.00,VWS V14.00,2013-09-11 21:50:00,
2013-09-11 16:55:00,76.4,46.8,30.12,NW,325,9.0,17.0,35,0.00,,SCT100,0.00,499.00,VWS V14.00,2013-09-11 21:55:00,
2013-09-11 17:00:00,76.3,46.7,30.12,NNW,334,13.0,15.0,35,0.00,,SCT100,0.00,506.00,VWS V14.00,2013-09-11 22:00:00,
2013-09-11 17:05:00,76.0,47.2,30.12,NNW,346,10.0,17.0,36,0.00,,SCT100,0.00,107.00,VWS V14.00,2013-09-11 22:05:00,
2013-09-11 17:10:00,74.3,45.7,30.12,NNW,337,10.0,17.0,36,0.00,,SCT100,0.00,79.00,VWS V14.00,2013-09-11 22:10:00,
2013-09-11 17:16:00,73.5,46.4,30.12,NNW,331,9.0,17.0,38,0.00,,SCT100,0.00,83.00,VWS V14.00,2013-09-11 22:16:00,
2013-09-11 17:21:00,75.0,46.3,30.12,NNW,348,8.0,17.0,36,0.00,,SCT100,0.00,454.00,VWS V14.00,2013-09-11 22:21:00,
2013-09-11 17:26:00,75.7,46.1,30.12,NW,322,10.0,17.0,35,0.00,,SCT100,0.00,432.00,VWS V14.00,2013-09-11 22:26:00,
2013-09-11 17:31:00,75.7,47.6,30.12,NNW,333,9.0,12.0,37,0.00,,SCT100,0.00,408.00,VWS V14.00,2013-09-11 22:31:00,
2013-09-11 17:36:00,75.7,46.1,30.12,NNW,327,5.0,13.0,35,0.00,,SCT100,0.00,388.00,VWS V14.00,2013-09-11 22:36:00,
2013-09-11 17:41:00,75.7,46.9,30.12,NNW,345,10.0,14.0,36,0.00,,CLR,0.00,376.00,VWS V14.00,2013-09-11 22:41:00,
2013-09-11 17:46:00,75.6,48.2,30.12,NNW,344,9.0,14.0,38,0.00,,CLR,0.00,366.00,VWS V14.00,2013-09-11 22:46:00,
2013-09-11 17:51:00,75.7,47.6,30.12,NW,304,10.0,14.0,37,0.00,,CLR,0.00,350.00,VWS V14.00,2013-09-11 22:51:00,
2013-09-11 17:56:00,75.6,46.8,30.12,NNW,340,9.0,14.0,36,0.00,,CLR,0.00,332.00,VWS V14.00,2013-09-11 22:56:00,
2013-09-11 18:01:00,75.4,46.6,30.12,NNW,331,8.0,8.0,36,0.00,,CLR,0.00,313.00,VWS V14.00,2013-09-11 23:01:00,
2013-09-11 18:06:00,75.4,47.3,30.12,NNW,336,6.0,10.0,37,0.00,,CLR,0.00,302.00,VWS V14.00,2013-09-11 23:06:00,
2013-09-11 18:11:00,75.3,48.0,30.12,NNW,337,8.0,11.0,38,0.00,,CLR,0.00,288.00,VWS V14.00,2013-09-11 23:11:00,
2013-09-11 18:16:00,75.2,48.6,30.12,North,351,7.0,11.0,39,0.00,,CLR,0.00,272.00,VWS V14.00,2013-09-11 23:16:00,
2013-09-11 18:21:00,75.2,47.9,30.12,NNW,340,7.0,11.0,38,0.00,,CLR,0.00,257.00,VWS V14.00,2013-09-11 23:21:00,
2013-09-11 18:26:00,75.1,49.2,30.12,NNW,344,6.0,11.0,40,0.00,,CLR,0.00,239.00,VWS V14.00,2013-09-11 23:26:00,
2013-09-11 18:31:00,74.8,49.5,30.12,North,5,9.0,10.0,41,0.00,,CLR,0.00,220.00,VWS V14.00,2013-09-11 23:31:00,
2013-09-11 18:36:00,75.0,49.1,30.12,North,5,8.0,12.0,40,0.00,,CLR,0.00,204.00,VWS V14.00,2013-09-11 23:36:00,
2013-09-11 18:41:00,75.3,49.3,30.12,NNE,17,8.0,12.0,40,0.00,,FEW100,0.00,185.00,VWS V14.00,2013-09-11 23:41:00,
2013-09-11 18:46:00,75.3,50.7,30.12,North,9,4.0,12.0,42,0.00,,FEW100,0.00,167.00,VWS V14.00,2013-09-11 23:46:00,
2013-09-11 18:51:00,74.4,49.8,30.12,North,360,6.0,12.0,42,0.00,,FEW100,0.00,148.00,VWS V14.00,2013-09-11 23:51:00,
2013-09-11 18:56:00,74.0,49.5,30.12,North,360,7.0,12.0,42,0.00,,FEW100,0.00,128.00,VWS V14.00,2013-09-11 23:56:00,
2013-09-11 19:01:00,73.8,48.7,30.12,NNE,13,9.0,12.0,41,0.00,,FEW100,0.00,111.00,VWS V14.00,2013-09-12 00:01:00,
2013-09-11 19:06:00,73.7,49.8,30.12,North,11,7.0,12.0,43,0.00,,FEW100,0.00,97.00,VWS V14.00,2013-09-12 00:06:00,
2013-09-11 19:11:00,73.5,49.0,30.13,NNE,12,11.0,12.0,42,0.00,,CLR,0.00,81.00,VWS V14.00,2013-09-12 00:11:00,
2013-09-11 19:16:00,73.2,49.4,30.13,NNE,14,6.0,12.0,43,0.00,,CLR,0.00,69.00,VWS V14.00,2013-09-12 00:16:00,
2013-09-11 19:21:00,72.8,49.6,30.13,NNE,13,7.0,12.0,44,0.00,,CLR,0.00,54.00,VWS V14.00,2013-09-12 00:21:00,
2013-09-11 19:26:00,72.4,49.9,30.13,NNE,16,7.0,12.0,45,0.00,,CLR,0.00,42.00,VWS V14.00,2013-09-12 00:26:00,
2013-09-11 19:31:00,71.9,50.6,30.13,NNE,16,6.0,8.0,47,0.00,,CLR,0.00,32.00,VWS V14.00,2013-09-12 00:31:00,
2013-09-11 19:36:00,71.1,49.9,30.13,NNE,16,5.0,8.0,47,0.00,,CLR,0.00,25.00,VWS V14.00,2013-09-12 00:36:00,
2013-09-11 19:41:00,70.6,49.4,30.13,NNE,16,6.0,8.0,47,0.00,,CLR,0.00,19.00,VWS V14.00,2013-09-12 00:41:00,
2013-09-11 19:46:00,70.0,50.0,30.13,NNE,17,5.0,9.0,49,0.00,,CLR,0.00,16.00,VWS V14.00,2013-09-12 00:46:00,
2013-09-11 19:52:00,69.2,49.8,30.14,NNE,17,7.0,9.0,50,0.00,,CLR,0.00,12.00,VWS V14.00,2013-09-12 00:52:00,
2013-09-11 19:57:00,68.4,49.6,30.13,NNE,17,5.0,9.0,51,0.00,,CLR,0.00,9.00,VWS V14.00,2013-09-12 00:57:00,
2013-09-11 20:02:00,67.7,49.5,30.14,NNE,18,6.0,8.0,52,0.00,,CLR,0.00,7.00,VWS V14.00,2013-09-12 01:02:00,
2013-09-11 20:07:00,67.2,49.0,30.14,NNE,19,6.0,9.0,52,0.00,,CLR,0.00,5.00,VWS V14.00,2013-09-12 01:07:00,
2013-09-11 20:12:00,66.6,49.0,30.14,NNE,19,5.0,9.0,53,0.00,,CLR,0.00,0.00,VWS V14.00,2013-09-12 01:12:00,
2013-09-11 20:17:00,66.1,49.5,30.14,NNE,19,4.0,9.0,55,0.00,,CLR,0.00,0.00,VWS V14.00,2013-09-12 01:17:00,
2013-09-11 20:22:00,65.7,49.6,30.15,NNE,19,5.0,9.0,56,0.00,,CLR,0.00,0.00,VWS V14.00,2013-09-12 01:22:00,
2013-09-11 20:27:00,65.4,49.3,30.15,NNE,19,4.0,9.0,56,0.00,,CLR,0.00,0.00,VWS V14.00,2013-09-12 01:27:00,
2013-09-11 20:32:00,65.2,49.6,30.15,NNE,19,6.0,6.0,57,0.00,,CLR,0.00,0.00,VWS V14.00,2013-09-12 01:32:00,
2013-09-11 20:37:00,65.0,49.4,30.15,NNE,20,5.0,7.0,57,0.00,,CLR,0.00,0.00,VWS V14.00,2013-09-12 01:37:00,
2013-09-11 20:42:00,64.8,49.2,30.16,NNE,20,5.0,7.0,57,0.00,,CLR,0.00,0.00,VWS V14.00,2013-09-12 01:42:00,
2013-09-11 20:47:00,64.6,49.0,30.16,NNE,21,5.0,8.0,57,0.00,,CLR,0.00,0.00,VWS V14.00,2013-09-12 01:47:00,
2013-09-11 20:52:00,64.4,49.3,30.16,NNE,21,5.0,8.0,58,0.00,,CLR,0.00,0.00,VWS V14.00,2013-09-12 01:52:00,
2013-09-11 20:57:00,64.0,48.9,30.16,NNE,24,6.0,8.0,58,0.00,,CLR,0.00,0.00,VWS V14.00,2013-09-12 01:57:00,
2013-09-11 21:02:00,63.6,48.6,30.16,NNE,26,5.0,7.0,58,0.00,,CLR,0.00,0.00,VWS V14.00,2013-09-12 02:02:00,
2013-09-11 21:07:00,63.3,48.7,30.16,NNE,26,5.0,7.0,59,0.00,,CLR,0.00,0.00,VWS V14.00,2013-09-12 02:07:00,
2013-09-11 21:12:00,63.0,48.5,30.16,NNE,28,6.0,7.0,59,0.00,,CLR,0.00,0.00,VWS V14.00,2013-09-12 02:12:00,
2013-09-11 21:17:00,62.8,47.8,30.17,NNE,28,6.0,7.0,58,0.00,,CLR,0.00,0.00,VWS V14.00,2013-09-12 02:17:00,
2013-09-11 21:22:00,62.7,47.7,30.17,NNE,28,5.0,7.0,58,0.00,,CLR,0.00,0.00,VWS V14.00,2013-09-12 02:22:00,
2013-09-11 21:27:00,62.7,47.7,30.17,NNE,28,5.0,7.0,58,0.00,,CLR,0.00,0.00,VWS V14.00,2013-09-12 02:27:00,
2013-09-11 21:32:00,62.8,47.4,30.17,NNE,28,4.0,5.0,57,0.00,,CLR,0.00,0.00,VWS V14.00,2013-09-12 02:32:00,
2013-09-11 21:37:00,62.9,47.5,30.17,NNE,28,6.0,6.0,57,0.00,,CLR,0.00,0.00,VWS V14.00,2013-09-12 02:37:00,
2013-09-11 21:42:00,62.9,47.0,30.18,NNE,28,5.0,6.0,56,0.00,,CLR,0.00,0.00,VWS V14.00,2013-09-12 02:42:00,
2013-09-11 21:47:00,62.8,47.4,30.18,NNE,28,5.0,6.0,57,0.00,,CLR,0.00,0.00,VWS V14.00,2013-09-12 02:47:00,
2013-09-11 21:52:00,62.6,47.2,30.18,NNE,28,5.0,7.0,57,0.00,,CLR,0.00,0.00,VWS V14.00,2013-09-12 02:52:00,
2013-09-11 21:57:00,62.2,47.7,30.18,NNE,28,5.0,7.0,59,0.00,,CLR,0.00,0.00,VWS V14.00,2013-09-12 02:57:00,
2013-09-11 22:02:00,61.7,47.7,30.19,NNE,28,5.0,6.0,60,0.00,,CLR,0.00,0.00,VWS V14.00,2013-09-12 03:02:00,
2013-09-11 22:07:00,61.3,47.8,30.18,NNE,28,4.0,6.0,61,0.00,,CLR,0.00,0.00,VWS V14.00,2013-09-12 03:07:00,
2013-09-11 22:12:00,60.9,47.4,30.18,NNE,28,4.0,6.0,61,0.00,,CLR,0.00,0.00,VWS V14.00,2013-09-12 03:12:00,
2013-09-11 22:17:00,60.6,47.5,30.18,NNE,28,4.0,6.0,62,0.00,,CLR,0.00,0.00,VWS V14.00,2013-09-12 03:17:00,
2013-09-11 22:22:00,60.3,47.7,30.18,NNE,28,6.0,6.0,63,0.00,,CLR,0.00,0.00,VWS V14.00,2013-09-12 03:22:00,
2013-09-11 22:27:00,60.0,47.4,30.18,NNE,28,5.0,6.0,63,0.00,,CLR,0.00,0.00,VWS V14.00,2013-09-12 03:27:00,
2013-09-11 22:33:00,59.8,47.2,30.18,NNE,28,5.0,7.0,63,0.00,,CLR,0.00,0.00,VWS V14.00,2013-09-12 03:33:00,
2013-09-11 22:38:00,59.8,47.2,30.18,NNE,28,5.0,7.0,63,0.00,,CLR,0.00,0.00,VWS V14.00,2013-09-12 03:38:00,
2013-09-11 22:43:00,59.9,47.3,30.18,NNE,28,4.0,7.0,63,0.00,,CLR,0.00,0.00,VWS V14.00,2013-09-12 03:43:00,
2013-09-11 22:48:00,59.8,47.2,30.19,NNE,28,3.0,7.0,63,0.00,,CLR,0.00,0.00,VWS V14.00,2013-09-12 03:48:00,
2013-09-11 22:53:00,59.6,47.4,30.19,NNE,28,3.0,7.0,64,0.00,,CLR,0.00,0.00,VWS V14.00,2013-09-12 03:53:00,
2013-09-11 22:58:00,59.6,46.6,30.19,NNE,28,2.0,7.0,62,0.00,,CLR,0.00,0.00,VWS V14.00,2013-09-12 03:58:00,
2013-09-11 23:01:00,59.6,47.0,30.19,NNE,28,1.0,3.0,63,0.00,,CLR,0.00,0.00,VWS V14.00,2013-09-12 04:01:00,
2013-09-11 23:02:00,59.5,46.9,30.19,NNE,28,1.0,3.0,63,0.00,,CLR,0.00,0.00,VWS V14.00,2013-09-12 04:02:00,
2013-09-11 23:03:00,59.5,46.9,30.19,NNE,28,2.0,3.0,63,0.00,,CLR,0.00,0.00,VWS V14.00,2013-09-12 04:03:00,
2013-09-11 23:05:00,59.4,46.8,30.19,NNE,28,2.0,3.0,63,0.00,,CLR,0.00,0.00,VWS V14.00,2013-09-12 04:05:00,
2013-09-11 23:06:00,59.4,46.4,30.19,NNE,28,2.0,3.0,62,0.00,,CLR,0.00,0.00,VWS V14.00,2013-09-12 04:06:00,
2013-09-11 23:11:00,59.4,47.7,30.19,NNE,28,1.0,3.0,65,0.00,,CLR,0.00,0.00,VWS V14.00,2013-09-12 04:11:00,
2013-09-11 23:14:00,59.0,47.3,30.19,NNE,28,0.0,3.0,65,0.00,,CLR,0.00,0.00,VWS V14.00,2013-09-12 04:14:00,
2013-09-11 23:19:00,58.4,47.1,30.19,NNE,28,2.0,3.0,66,0.00,,CLR,0.00,0.00,VWS V14.00,2013-09-12 04:19:00,
2013-09-11 23:24:00,57.8,47.3,30.20,NNE,28,3.0,4.0,68,0.00,,CLR,0.00,0.00,VWS V14.00,2013-09-12 04:24:00,
2013-09-11 23:29:00,57.1,46.3,30.20,NNE,28,0.0,4.0,67,0.00,,CLR,0.00,0.00,VWS V14.00,2013-09-12 04:29:00,
2013-09-11 23:34:00,56.9,46.8,30.19,NNE,28,0.0,0.0,69,0.00,,CLR,0.00,0.00,VWS V14.00,2013-09-12 04:34:00,
2013-09-11 23:39:00,56.4,46.8,30.19,NNE,28,1.0,2.0,70,0.00,,CLR,0.00,0.00,VWS V14.00,2013-09-12 04:39:00,
2013-09-11 23:44:00,55.8,46.5,30.20,NNE,28,4.0,4.0,71,0.00,,CLR,0.00,0.00,VWS V14.00,2013-09-12 04:44:00,
2013-09-11 23:49:00,55.6,46.7,30.20,NNE,28,0.0,4.0,72,0.00,,CLR,0.00,0.00,VWS V14.00,2013-09-12 04:49:00,
2013-09-11 23:54:00,55.3,46.1,30.20,NNE,28,1.0,5.0,71,0.00,,CLR,0.00,0.00,VWS V14.00,2013-09-12 04:54:00,
2013-09-11 23:59:00,55.4,46.2,30.20,NNE,28,3.0,5.0,71,0.00,,CLR,0.00,0.00,VWS V14.00,2013-09-12 04:59:00,